TimeGMT,TemperatureF,Dew PointF,Humidity,Sea Level PressureIn,VisibilityMPH,Wind Direction,Wind SpeedMPH,Gust SpeedMPH,PrecipitationIn,Events,Conditions,WindDirDegrees,DateUTC
12:20 AM,30.2,28.4,93,29.83,-9999.0,Calm,Calm,-,N/A,,Haze,0,2012-12-13 00:20:00
12:50 AM,30.2,28.4,93,29.83,-9999.0,Calm,Calm,-,N/A,Snow,Light Snow,0,2012-12-13 00:50:00
1:20 AM,30.2,28.4,93,29.80,-9999.0,Calm,Calm,-,N/A,Snow,Light Snow,0,2012-12-13 01:20:00
1:50 AM,32.0,30.2,93,29.80,-9999.0,NE,3.5,-,N/A,Rain,Rain,50,2012-12-13 01:50:00
2:20 AM,32.0,30.2,93,29.80,2.2,NE,3.5,-,N/A,Rain,Rain,50,2012-12-13 02:20:00
2:50 AM,32.0,30.2,93,29.80,-9999.0,East,3.5,-,N/A,Rain,Rain,80,2012-12-13 02:50:00
3:20 AM,32.0,30.2,93,29.77,-9999.0,Calm,Calm,-,N/A,Snow,Light Snow,0,2012-12-13 03:20:00
3:50 AM,32.0,30.2,93,29.77,-9999.0,NE,2.3,-,N/A,Snow,Light Snow,50,2012-12-13 03:50:00
4:20 AM,32.0,30.2,93,29.77,2.2,East,3.5,-,N/A,Snow,Light Snow,80,2012-12-13 04:20:00
4:50 AM,32.0,30.2,93,29.74,-9999.0,Variable,2.3,-,N/A,Snow,Light Snow,0,2012-12-13 04:50:00
5:20 AM,32.0,30.2,93,29.74,3.1,NE,4.6,-,N/A,Snow,Light Snow,50,2012-12-13 05:20:00
5:50 AM,32.0,30.2,93,29.74,3.7,ENE,5.8,-,N/A,,Light Drizzle,70,2012-12-13 05:50:00
6:20 AM,32.0,30.2,93,29.74,3.7,ENE,6.9,-,N/A,,Light Drizzle,60,2012-12-13 06:20:00
6:50 AM,32.0,30.2,93,29.71,4.3,ENE,6.9,-,N/A,,Mostly Cloudy,70,2012-12-13 06:50:00
7:20 AM,32.0,30.2,93,29.71,4.3,East,4.6,-,N/A,,Mostly Cloudy,90,2012-12-13 07:20:00
7:50 AM,33.8,30.2,87,29.71,5.0,East,4.6,-,N/A,Snow,Light Snow Grains,80,2012-12-13 07:50:00
8:20 AM,32.0,30.2,93,29.71,5.0,ENE,3.5,-,N/A,,Mostly Cloudy,60,2012-12-13 08:20:00
8:50 AM,32.0,30.2,93,29.71,4.3,NE,3.5,-,N/A,,Overcast,50,2012-12-13 08:50:00
9:20 AM,33.8,30.2,87,29.71,4.3,ENE,5.8,-,N/A,,Overcast,70,2012-12-13 09:20:00
9:50 AM,33.8,30.2,87,29.71,5.0,East,5.8,-,N/A,,Overcast,80,2012-12-13 09:50:00
10:20 AM,33.8,30.2,87,29.68,5.0,NE,6.9,-,N/A,,Mostly Cloudy,40,2012-12-13 10:20:00
10:50 AM,33.8,30.2,87,29.68,5.0,ENE,5.8,-,N/A,,Mostly Cloudy,60,2012-12-13 10:50:00
11:20 AM,33.8,30.2,87,29.68,5.0,ENE,5.8,-,N/A,,Mostly Cloudy,60,2012-12-13 11:20:00
11:50 AM,33.8,30.2,87,29.68,5.0,NE,4.6,-,N/A,,Mostly Cloudy,50,2012-12-13 11:50:00
12:20 PM,33.8,30.2,87,29.65,5.0,ENE,5.8,-,N/A,,Mostly Cloudy,60,2012-12-13 12:20:00
12:50 PM,33.8,32.0,93,29.65,5.0,ENE,5.8,-,N/A,,Mostly Cloudy,60,2012-12-13 12:50:00
1:20 PM,33.8,32.0,93,29.65,5.0,NE,6.9,-,N/A,,Mostly Cloudy,50,2012-12-13 13:20:00
1:50 PM,35.6,30.2,81,29.62,5.6,ENE,8.1,-,N/A,,Scattered Clouds,60,2012-12-13 13:50:00
2:20 PM,35.6,30.2,81,29.62,6.2,ENE,6.9,-,N/A,,Scattered Clouds,60,2012-12-13 14:20:00
2:50 PM,35.6,32.0,87,29.62,5.0,ENE,8.1,-,N/A,,Unknown,70,2012-12-13 14:50:00
3:20 PM,33.8,30.2,87,29.59,5.6,ENE,6.9,-,N/A,,Unknown,60,2012-12-13 15:20:00
3:50 PM,33.8,30.2,87,29.59,5.6,ENE,6.9,-,N/A,,Unknown,60,2012-12-13 15:50:00
4:20 PM,33.8,30.2,87,29.59,4.3,ENE,8.1,-,N/A,,Unknown,60,2012-12-13 16:20:00
4:50 PM,32.0,28.4,87,29.59,5.0,ENE,8.1,-,N/A,,Unknown,60,2012-12-13 16:50:00
5:20 PM,32.0,30.2,93,29.56,5.6,East,5.8,-,N/A,,Unknown,80,2012-12-13 17:20:00
5:50 PM,32.0,28.4,87,29.56,5.0,NE,4.6,-,N/A,,Unknown,50,2012-12-13 17:50:00
6:20 PM,32.0,28.4,87,29.56,5.6,ENE,6.9,-,N/A,,Unknown,60,2012-12-13 18:20:00
6:50 PM,32.0,28.4,87,29.56,6.2,ENE,8.1,-,N/A,,Unknown,70,2012-12-13 18:50:00
7:20 PM,32.0,26.6,80,29.53,6.2,ENE,6.9,-,N/A,,Partly Cloudy,70,2012-12-13 19:20:00
7:50 PM,32.0,26.6,80,29.53,6.2,ENE,8.1,-,N/A,,Partly Cloudy,70,2012-12-13 19:50:00
8:20 PM,32.0,26.6,80,29.53,6.2,ENE,9.2,-,N/A,,Unknown,70,2012-12-13 20:20:00
8:50 PM,32.0,24.8,75,29.53,6.2,ENE,9.2,-,N/A,,Unknown,70,2012-12-13 20:50:00
9:20 PM,32.0,24.8,75,29.50,-9999.0,East,10.4,-,N/A,,Clear,80,2012-12-13 21:20:00
9:50 PM,32.0,24.8,75,29.50,-9999.0,East,9.2,-,N/A,,Clear,80,2012-12-13 21:50:00
11:20 PM,30.2,21.2,69,29.47,-9999.0,ENE,8.1,-,N/A,,Clear,70,2012-12-13 23:20:00
11:50 PM,30.2,21.2,69,29.44,-9999.0,ENE,10.4,-,N/A,,Clear,70,2012-12-13 23:50:00